Time,TemperatureF,DewpointF,PressureIn,WindDirection,WindDirectionDegrees,WindSpeedMPH,WindSpeedGustMPH,Humidity,HourlyPrecipIn,Conditions,Clouds,dailyrainin,SoftwareType,DateUTC
2013-07-29 00:00:00,70.1,70.0,29.93,SSW,210,0.0,0.0,98,0.00,,,0.40,oem by Ross Wheeler,2013-07-29 04:00:00,
2013-07-29 00:05:00,70.0,69.0,29.93,SSW,212,0.0,0.0,98,0.00,,,0.00,oem by Ross Wheeler,2013-07-29 04:05:00,
2013-07-29 00:10:00,70.0,69.0,29.93,SSW,210,0.0,0.0,98,0.00,,,0.00,oem by Ross Wheeler,2013-07-29 04:10:00,
2013-07-29 00:15:00,70.0,69.0,29.93,SSW,210,0.0,0.0,98,0.00,,,0.00,oem by Ross Wheeler,2013-07-29 04:15:00,
2013-07-29 00:25:00,70.0,69.0,29.94,SSW,207,0.0,0.0,98,0.00,,,0.00,oem by Ross Wheeler,2013-07-29 04:25:00,
2013-07-29 00:30:00,69.6,69.0,29.94,SW,217,0.0,0.0,97,0.00,,,0.01,oem by Ross Wheeler,2013-07-29 04:30:00,
2013-07-29 00:35:00,69.5,69.0,29.93,SW,217,0.0,0.0,97,0.00,,,0.01,oem by Ross Wheeler,2013-07-29 04:35:00,
2013-07-29 00:40:00,69.5,69.0,29.93,SW,217,1.0,0.0,97,0.00,,,0.01,oem by Ross Wheeler,2013-07-29 04:40:00,
2013-07-29 00:45:00,69.3,69.0,29.93,SW,217,0.0,0.0,97,0.00,,,0.01,oem by Ross Wheeler,2013-07-29 04:45:00,
2013-07-29 00:50:00,69.1,68.0,29.93,SW,217,0.0,0.0,97,0.00,,,0.01,oem by Ross Wheeler,2013-07-29 04:50:00,
2013-07-29 01:00:00,68.6,68.0,29.93,SW,217,0.0,0.0,97,0.00,,,0.01,oem by Ross Wheeler,2013-07-29 05:00:00,
2013-07-29 01:10:00,68.3,68.0,29.94,SW,217,0.0,0.0,97,0.00,,,0.01,oem by Ross Wheeler,2013-07-29 05:10:00,
2013-07-29 01:15:00,68.1,67.0,29.94,SW,217,0.0,0.0,97,0.00,,,0.01,oem by Ross Wheeler,2013-07-29 05:15:00,
2013-07-29 01:25:00,67.8,67.0,29.93,SW,217,0.0,0.0,97,0.00,,,0.01,oem by Ross Wheeler,2013-07-29 05:25:00,
2013-07-29 01:30:00,67.8,67.0,29.93,SW,217,0.0,0.0,97,0.00,,,0.01,oem by Ross Wheeler,2013-07-29 05:30:00,
2013-07-29 01:40:00,67.6,67.0,29.93,SW,217,0.0,0.0,97,0.00,,,0.01,oem by Ross Wheeler,2013-07-29 05:40:00,
2013-07-29 01:45:00,67.6,67.0,29.93,SW,217,0.0,0.0,98,0.00,,,0.01,oem by Ross Wheeler,2013-07-29 05:45:00,
2013-07-29 01:55:00,67.6,67.0,29.92,SW,217,0.0,0.0,98,0.00,,,0.01,oem by Ross Wheeler,2013-07-29 05:55:00,
2013-07-29 02:00:00,67.6,67.0,29.92,SW,217,0.0,0.0,97,0.00,,,0.01,oem by Ross Wheeler,2013-07-29 06:00:00,
2013-07-29 02:10:00,67.5,67.0,29.93,SW,217,0.0,0.0,98,0.00,,,0.01,oem by Ross Wheeler,2013-07-29 06:10:00,
2013-07-29 02:15:00,67.5,67.0,29.93,SW,217,0.0,0.0,98,0.00,,,0.01,oem by Ross Wheeler,2013-07-29 06:15:00,
2013-07-29 02:25:00,67.6,67.0,29.93,SW,217,0.0,0.0,98,0.00,,,0.01,oem by Ross Wheeler,2013-07-29 06:25:00,
2013-07-29 02:30:00,67.6,67.0,29.93,SW,217,0.0,0.0,98,0.00,,,0.01,oem by Ross Wheeler,2013-07-29 06:30:00,
2013-07-29 02:40:00,67.8,67.0,29.93,SW,217,0.0,0.0,98,0.00,,,0.01,oem by Ross Wheeler,2013-07-29 06:40:00,
2013-07-29 02:45:00,68.0,68.0,29.93,SW,217,0.0,0.0,98,0.00,,,0.01,oem by Ross Wheeler,2013-07-29 06:45:00,
2013-07-29 02:55:00,68.1,68.0,29.93,SW,217,0.0,0.0,98,0.00,,,0.01,oem by Ross Wheeler,2013-07-29 06:55:00,
2013-07-29 03:00:00,68.3,68.0,29.93,SW,217,0.0,0.0,98,0.00,,,0.01,oem by Ross Wheeler,2013-07-29 07:00:00,
2013-07-29 03:10:00,68.5,68.0,29.93,SW,217,0.0,0.0,98,0.00,,,0.02,oem by Ross Wheeler,2013-07-29 07:10:00,
2013-07-29 03:15:00,68.6,68.0,29.93,SW,217,0.0,0.0,98,0.00,,,0.02,oem by Ross Wheeler,2013-07-29 07:15:00,
2013-07-29 03:25:00,69.0,69.0,29.95,South,181,0.0,0.0,98,0.00,,,0.02,oem by Ross Wheeler,2013-07-29 07:25:00,
2013-07-29 03:30:00,69.0,69.0,29.95,South,181,0.0,0.0,98,0.00,,,0.02,oem by Ross Wheeler,2013-07-29 07:30:00,
2013-07-29 03:40:00,69.0,69.0,29.95,South,181,0.0,0.0,98,0.00,,,0.02,oem by Ross Wheeler,2013-07-29 07:40:00,
2013-07-29 03:46:00,69.0,69.0,29.95,South,181,0.0,0.0,98,0.00,,,0.02,oem by Ross Wheeler,2013-07-29 07:46:00,
2013-07-29 03:55:00,69.0,69.0,29.95,South,181,0.0,0.0,98,0.00,,,0.02,oem by Ross Wheeler,2013-07-29 07:55:00,
2013-07-29 04:00:00,69.0,69.0,29.95,South,181,0.0,0.0,98,0.00,,,0.02,oem by Ross Wheeler,2013-07-29 08:00:00,
2013-07-29 04:10:00,69.0,69.0,29.94,South,181,0.0,0.0,98,0.00,,,0.02,oem by Ross Wheeler,2013-07-29 08:10:00,
2013-07-29 04:15:00,68.8,68.0,29.94,South,181,0.0,0.0,98,0.00,,,0.02,oem by Ross Wheeler,2013-07-29 08:15:00,
2013-07-29 04:25:00,68.6,68.0,29.93,South,181,0.0,0.0,98,0.00,,,0.02,oem by Ross Wheeler,2013-07-29 08:25:00,
2013-07-29 04:30:00,68.5,68.0,29.93,South,181,0.0,0.0,98,0.00,,,0.02,oem by Ross Wheeler,2013-07-29 08:30:00,
2013-07-29 04:40:00,68.3,68.0,29.94,South,181,0.0,0.0,98,0.00,,,0.02,oem by Ross Wheeler,2013-07-29 08:40:00,
2013-07-29 04:45:00,68.3,68.0,29.94,South,181,0.0,0.0,98,0.00,,,0.02,oem by Ross Wheeler,2013-07-29 08:45:00,
2013-07-29 04:55:00,68.1,68.0,29.93,South,181,0.0,0.0,98,0.00,,,0.02,oem by Ross Wheeler,2013-07-29 08:55:00,
2013-07-29 05:00:00,68.1,68.0,29.93,South,181,0.0,0.0,98,0.00,,,0.02,oem by Ross Wheeler,2013-07-29 09:00:00,
2013-07-29 05:10:00,68.0,68.0,29.93,South,181,0.0,0.0,98,0.00,,,0.02,oem by Ross Wheeler,2013-07-29 09:10:00,
2013-07-29 05:15:00,68.0,68.0,29.93,South,181,0.0,0.0,98,0.00,,,0.02,oem by Ross Wheeler,2013-07-29 09:15:00,
2013-07-29 05:25:00,67.8,67.0,29.93,South,181,0.0,0.0,98,0.00,,,0.02,oem by Ross Wheeler,2013-07-29 09:25:00,
2013-07-29 05:30:00,67.8,67.0,29.93,South,181,0.0,0.0,98,0.00,,,0.02,oem by Ross Wheeler,2013-07-29 09:30:00,
2013-07-29 05:40:00,67.6,67.0,29.94,South,181,0.0,0.0,98,0.00,,,0.02,oem by Ross Wheeler,2013-07-29 09:40:00,
2013-07-29 05:45:00,67.6,67.0,29.94,South,181,0.0,0.0,98,0.00,,,0.02,oem by Ross Wheeler,2013-07-29 09:45:00,
2013-07-29 05:55:00,67.6,67.0,29.94,South,181,0.0,0.0,98,0.00,,,0.02,oem by Ross Wheeler,2013-07-29 09:55:00,
2013-07-29 06:00:00,67.6,67.0,29.94,South,181,0.0,0.0,98,0.00,,,0.02,oem by Ross Wheeler,2013-07-29 10:00:00,
2013-07-29 06:10:00,67.6,67.0,29.94,South,181,0.0,0.0,98,0.00,,,0.02,oem by Ross Wheeler,2013-07-29 10:10:00,
2013-07-29 06:15:00,67.6,67.0,29.94,SSE,162,0.0,0.0,98,0.00,,,0.02,oem by Ross Wheeler,2013-07-29 10:15:00,
2013-07-29 06:25:00,67.5,67.0,29.94,NNW,343,0.0,0.0,98,0.00,,,0.02,oem by Ross Wheeler,2013-07-29 10:25:00,
2013-07-29 06:30:00,67.5,67.0,29.94,NNW,343,0.0,0.0,98,0.00,,,0.02,oem by Ross Wheeler,2013-07-29 10:30:00,
2013-07-29 06:40:00,67.5,67.0,29.95,SW,233,1.0,0.0,98,0.00,,,0.02,oem by Ross Wheeler,2013-07-29 10:40:00,
2013-07-29 06:45:00,67.6,67.0,29.95,SSW,213,0.0,0.0,98,0.00,,,0.02,oem by Ross Wheeler,2013-07-29 10:45:00,
2013-07-29 06:55:00,68.0,68.0,29.95,SSW,213,0.0,0.0,99,0.00,,,0.02,oem by Ross Wheeler,2013-07-29 10:55:00,
2013-07-29 07:00:00,68.0,68.0,29.95,SSW,213,0.0,0.0,99,0.00,,,0.02,oem by Ross Wheeler,2013-07-29 11:00:00,
2013-07-29 07:10:00,68.0,68.0,29.96,SSW,213,0.0,0.0,98,0.00,,,0.02,oem by Ross Wheeler,2013-07-29 11:10:00,
2013-07-29 07:15:00,67.8,67.0,29.96,SSW,213,0.0,0.0,98,0.00,,,0.02,oem by Ross Wheeler,2013-07-29 11:15:00,
2013-07-29 07:25:00,67.8,67.0,29.96,SSW,213,0.0,0.0,98,0.00,,,0.02,oem by Ross Wheeler,2013-07-29 11:25:00,
2013-07-29 07:31:00,67.8,67.0,29.96,SSW,213,0.0,0.0,98,0.00,,,0.02,oem by Ross Wheeler,2013-07-29 11:31:00,
2013-07-29 07:40:00,67.8,67.0,29.97,SSW,213,0.0,0.0,98,0.00,,,0.02,oem by Ross Wheeler,2013-07-29 11:40:00,
2013-07-29 07:45:00,67.8,67.0,29.97,SSW,213,0.0,0.0,98,0.00,,,0.02,oem by Ross Wheeler,2013-07-29 11:45:00,
2013-07-29 07:55:00,67.8,67.0,29.97,SSW,213,0.0,0.0,98,0.00,,,0.02,oem by Ross Wheeler,2013-07-29 11:55:00,
2013-07-29 08:01:00,67.8,67.0,29.97,SSW,213,0.0,0.0,98,0.00,,,0.02,oem by Ross Wheeler,2013-07-29 12:01:00,
2013-07-29 08:10:00,68.0,68.0,29.98,SSW,213,0.0,0.0,99,0.00,,,0.02,oem by Ross Wheeler,2013-07-29 12:10:00,
2013-07-29 08:15:00,68.0,68.0,29.98,SSW,213,0.0,0.0,98,0.00,,,0.02,oem by Ross Wheeler,2013-07-29 12:15:00,
2013-07-29 08:25:00,68.1,68.0,29.99,SSW,213,0.0,0.0,98,0.00,,,0.02,oem by Ross Wheeler,2013-07-29 12:25:00,
2013-07-29 08:30:00,68.1,68.0,29.99,SSW,213,0.0,0.0,98,0.00,,,0.02,oem by Ross Wheeler,2013-07-29 12:30:00,
2013-07-29 08:40:00,68.3,68.0,29.99,SSW,213,0.0,0.0,99,0.00,,,0.02,oem by Ross Wheeler,2013-07-29 12:40:00,
2013-07-29 08:45:00,68.3,68.0,29.99,SSW,213,0.0,0.0,98,0.00,,,0.02,oem by Ross Wheeler,2013-07-29 12:45:00,
2013-07-29 08:55:00,68.5,68.0,29.98,SSW,213,0.0,0.0,98,0.00,,,0.02,oem by Ross Wheeler,2013-07-29 12:55:00,
2013-07-29 09:01:00,68.6,68.0,29.98,SSW,213,0.0,0.0,99,0.00,,,0.02,oem by Ross Wheeler,2013-07-29 13:01:00,
2013-07-29 09:10:00,68.8,68.0,29.99,SSW,213,0.0,0.0,98,0.00,,,0.02,oem by Ross Wheeler,2013-07-29 13:10:00,
2013-07-29 09:15:00,69.0,69.0,29.99,SSW,213,0.0,0.0,98,0.00,,,0.02,oem by Ross Wheeler,2013-07-29 13:15:00,
2013-07-29 09:25:00,69.0,69.0,29.99,SSW,213,0.0,0.0,98,0.00,,,0.02,oem by Ross Wheeler,2013-07-29 13:25:00,
2013-07-29 09:30:00,69.0,69.0,29.99,SSW,213,0.0,0.0,98,0.00,,,0.02,oem by Ross Wheeler,2013-07-29 13:30:00,
2013-07-29 09:40:00,68.6,68.0,29.99,SSW,213,0.0,0.0,98,0.00,,,0.02,oem by Ross Wheeler,2013-07-29 13:40:00,
2013-07-29 09:45:00,68.8,68.0,29.99,SSW,213,0.0,0.0,98,0.00,,,0.02,oem by Ross Wheeler,2013-07-29 13:45:00,
2013-07-29 09:55:00,68.5,68.0,29.99,SSW,213,1.0,0.0,98,0.00,,,0.02,oem by Ross Wheeler,2013-07-29 13:55:00,
2013-07-29 10:00:00,68.3,68.0,29.99,SSW,213,0.0,0.0,97,0.00,,,0.02,oem by Ross Wheeler,2013-07-29 14:00:00,
2013-07-29 10:10:00,68.6,68.0,29.99,SSW,213,0.0,0.0,97,0.00,,,0.02,oem by Ross Wheeler,2013-07-29 14:10:00,
2013-07-29 10:15:00,69.0,68.0,29.99,SSW,213,0.0,0.0,96,0.00,,,0.02,oem by Ross Wheeler,2013-07-29 14:15:00,
2013-07-29 10:25:00,69.6,68.0,30.00,SSW,213,0.0,0.0,95,0.00,,,0.02,oem by Ross Wheeler,2013-07-29 14:25:00,
2013-07-29 10:30:00,69.8,67.0,30.00,SSW,202,0.0,0.0,92,0.00,,,0.02,oem by Ross Wheeler,2013-07-29 14:30:00,
2013-07-29 10:40:00,70.7,67.0,30.00,SSW,200,0.0,0.0,87,0.00,,,0.02,oem by Ross Wheeler,2013-07-29 14:40:00,
2013-07-29 10:45:00,71.3,68.0,30.00,SSW,200,0.0,0.0,88,0.00,,,0.02,oem by Ross Wheeler,2013-07-29 14:45:00,
2013-07-29 10:55:00,72.5,67.0,30.00,SW,216,0.0,0.0,84,0.00,,,0.02,oem by Ross Wheeler,2013-07-29 14:55:00,
2013-07-29 11:00:00,72.9,66.0,30.00,SW,216,0.0,0.0,79,0.00,,,0.02,oem by Ross Wheeler,2013-07-29 15:00:00,
2013-07-29 11:10:00,73.8,67.0,30.00,SW,216,0.0,0.0,80,0.00,,,0.02,oem by Ross Wheeler,2013-07-29 15:10:00,
2013-07-29 11:15:00,74.1,68.0,30.00,SW,216,1.0,0.0,82,0.00,,,0.02,oem by Ross Wheeler,2013-07-29 15:15:00,
2013-07-29 11:25:00,74.6,69.0,30.00,SSW,206,0.0,0.0,83,0.00,,,0.02,oem by Ross Wheeler,2013-07-29 15:25:00,
2013-07-29 11:30:00,75.0,68.0,30.00,SSW,206,0.0,0.0,80,0.00,,,0.02,oem by Ross Wheeler,2013-07-29 15:30:00,
2013-07-29 11:40:00,75.5,68.0,30.00,SW,234,0.0,0.0,77,0.00,,,0.02,oem by Ross Wheeler,2013-07-29 15:40:00,
2013-07-29 11:45:00,75.7,67.0,29.99,SW,234,0.0,0.0,75,0.00,,,0.02,oem by Ross Wheeler,2013-07-29 15:45:00,
2013-07-29 11:50:00,76.2,69.0,29.99,SW,231,1.0,0.0,77,0.00,,,0.02,oem by Ross Wheeler,2013-07-29 15:50:00,
2013-07-29 12:01:00,76.8,67.0,29.99,SW,220,0.0,0.0,72,0.00,,,0.02,oem by Ross Wheeler,2013-07-29 16:01:00,
2013-07-29 12:10:00,77.5,66.0,29.99,SW,222,0.0,0.0,68,0.00,,,0.02,oem by Ross Wheeler,2013-07-29 16:10:00,
2013-07-29 12:15:00,78.2,67.0,29.99,SW,222,1.0,0.0,68,0.00,,,0.02,oem by Ross Wheeler,2013-07-29 16:15:00,
2013-07-29 12:25:00,79.9,66.0,29.99,SSW,199,1.0,0.0,62,0.00,,,0.02,oem by Ross Wheeler,2013-07-29 16:25:00,
2013-07-29 12:30:00,80.4,65.0,29.99,SSW,209,0.0,0.0,60,0.00,,,0.02,oem by Ross Wheeler,2013-07-29 16:30:00,
2013-07-29 12:40:00,81.2,68.0,29.99,SSW,207,1.0,0.0,64,0.00,,,0.02,oem by Ross Wheeler,2013-07-29 16:40:00,
2013-07-29 12:46:00,81.4,67.0,29.99,South,182,1.0,0.0,61,0.00,,,0.02,oem by Ross Wheeler,2013-07-29 16:46:00,
2013-07-29 12:55:00,82.2,67.0,29.99,SSW,205,1.0,0.0,60,0.00,,,0.02,oem by Ross Wheeler,2013-07-29 16:55:00,
2013-07-29 13:00:00,82.6,66.0,29.99,South,183,3.0,0.0,58,0.00,,,0.02,oem by Ross Wheeler,2013-07-29 17:00:00,
2013-07-29 13:10:00,83.3,68.0,29.99,SSW,207,0.0,0.0,60,0.00,,,0.02,oem by Ross Wheeler,2013-07-29 17:10:00,
2013-07-29 13:15:00,83.7,69.0,29.98,South,176,0.0,0.0,62,0.00,,,0.02,oem by Ross Wheeler,2013-07-29 17:15:00,
2013-07-29 13:25:00,84.3,68.0,29.98,SSW,213,2.0,0.0,58,0.00,,,0.02,oem by Ross Wheeler,2013-07-29 17:25:00,
2013-07-29 13:31:00,84.3,68.0,29.98,SW,220,1.0,0.0,58,0.00,,,0.02,oem by Ross Wheeler,2013-07-29 17:31:00,
2013-07-29 13:40:00,84.1,66.0,29.98,WSW,241,0.0,0.0,55,0.00,,,0.02,oem by Ross Wheeler,2013-07-29 17:40:00,
2013-07-29 13:46:00,84.1,67.0,29.98,SSW,196,0.0,0.0,57,0.00,,,0.02,oem by Ross Wheeler,2013-07-29 17:46:00,
2013-07-29 13:55:00,84.5,68.0,29.98,SW,223,2.0,0.0,58,0.00,,,0.02,oem by Ross Wheeler,2013-07-29 17:55:00,
2013-07-29 14:00:00,84.9,67.0,29.98,South,186,2.0,0.0,56,0.00,,,0.02,oem by Ross Wheeler,2013-07-29 18:00:00,
2013-07-29 14:10:00,84.1,67.0,29.98,SSW,209,0.0,0.0,57,0.00,,,0.02,oem by Ross Wheeler,2013-07-29 18:10:00,
2013-07-29 14:15:00,83.9,66.0,29.98,WSW,253,1.0,0.0,56,0.00,,,0.02,oem by Ross Wheeler,2013-07-29 18:15:00,
2013-07-29 14:25:00,83.5,66.0,29.98,SSW,209,2.0,0.0,56,0.00,,,0.02,oem by Ross Wheeler,2013-07-29 18:25:00,
2013-07-29 14:30:00,83.3,65.0,29.98,SSE,150,1.0,0.0,54,0.00,,,0.02,oem by Ross Wheeler,2013-07-29 18:30:00,
2013-07-29 14:40:00,83.3,64.0,29.98,SSW,202,4.0,0.0,53,0.00,,,0.02,oem by Ross Wheeler,2013-07-29 18:40:00,
2013-07-29 14:45:00,83.3,64.0,29.98,SSW,192,6.0,0.0,52,0.00,,,0.02,oem by Ross Wheeler,2013-07-29 18:45:00,
2013-07-29 14:55:00,83.2,65.0,29.98,SSW,213,1.0,0.0,54,0.00,,,0.02,oem by Ross Wheeler,2013-07-29 18:55:00,
2013-07-29 15:01:00,83.0,65.0,29.98,WNW,284,0.0,0.0,55,0.00,,,0.02,oem by Ross Wheeler,2013-07-29 19:01:00,
2013-07-29 15:10:00,83.0,67.0,29.98,West,265,5.0,0.0,58,0.00,,,0.02,oem by Ross Wheeler,2013-07-29 19:10:00,
2013-07-29 15:16:00,83.0,65.0,29.98,SSW,198,6.0,0.0,54,0.00,,,0.02,oem by Ross Wheeler,2013-07-29 19:16:00,
2013-07-29 15:25:00,83.2,64.0,29.98,SW,233,2.0,0.0,52,0.00,,,0.02,oem by Ross Wheeler,2013-07-29 19:25:00,
2013-07-29 15:30:00,83.3,65.0,29.97,South,191,0.0,0.0,54,0.00,,,0.02,oem by Ross Wheeler,2013-07-29 19:30:00,
2013-07-29 15:35:00,83.5,66.0,29.97,SSW,193,3.0,0.0,55,0.00,,,0.02,oem by Ross Wheeler,2013-07-29 19:35:00,
2013-07-29 15:45:00,83.7,68.0,29.98,WNW,287,1.0,0.0,59,0.00,,,0.02,oem by Ross Wheeler,2013-07-29 19:45:00,
2013-07-29 15:55:00,83.9,64.0,29.98,South,171,2.0,0.0,51,0.00,,,0.02,oem by Ross Wheeler,2013-07-29 19:55:00,
2013-07-29 16:01:00,83.3,65.0,29.98,SW,217,3.0,0.0,55,0.00,,,0.02,oem by Ross Wheeler,2013-07-29 20:01:00,
2013-07-29 16:10:00,83.2,65.0,29.98,SSW,192,3.0,0.0,54,0.00,,,0.02,oem by Ross Wheeler,2013-07-29 20:10:00,
2013-07-29 16:16:00,83.5,66.0,29.97,SSW,213,2.0,0.0,55,0.00,,,0.02,oem by Ross Wheeler,2013-07-29 20:16:00,
2013-07-29 16:25:00,84.1,63.0,29.97,SSW,196,7.0,0.0,50,0.00,,,0.02,oem by Ross Wheeler,2013-07-29 20:25:00,
2013-07-29 16:30:00,84.3,63.0,29.98,SSW,195,5.0,0.0,49,0.00,,,0.02,oem by Ross Wheeler,2013-07-29 20:30:00,
2013-07-29 16:40:00,84.1,64.0,29.98,SSW,202,1.0,0.0,51,0.00,,,0.02,oem by Ross Wheeler,2013-07-29 20:40:00,
2013-07-29 16:45:00,84.1,61.0,29.98,SW,226,1.0,0.0,46,0.00,,,0.02,oem by Ross Wheeler,2013-07-29 20:45:00,
2013-07-29 16:55:00,83.3,63.0,29.98,NW,322,0.0,0.0,50,0.00,,,0.02,oem by Ross Wheeler,2013-07-29 20:55:00,
2013-07-29 17:00:00,83.2,64.0,29.98,WSW,237,0.0,0.0,52,0.00,,,0.02,oem by Ross Wheeler,2013-07-29 21:00:00,
2013-07-29 17:10:00,82.8,59.0,29.98,SW,230,2.0,0.0,45,0.00,,,0.02,oem by Ross Wheeler,2013-07-29 21:10:00,
2013-07-29 17:15:00,82.6,57.0,29.98,SSW,202,2.0,0.0,42,0.00,,,0.02,oem by Ross Wheeler,2013-07-29 21:15:00,
2013-07-29 17:25:00,81.8,59.0,29.98,South,182,1.0,0.0,46,0.00,,,0.02,oem by Ross Wheeler,2013-07-29 21:25:00,
2013-07-29 17:30:00,81.4,56.0,29.98,SSW,202,0.0,0.0,42,0.00,,,0.02,oem by Ross Wheeler,2013-07-29 21:30:00,
2013-07-29 17:40:00,81.4,54.0,29.98,SSW,203,6.0,0.0,39,0.00,,,0.02,oem by Ross Wheeler,2013-07-29 21:40:00,
2013-07-29 17:46:00,81.4,55.0,29.99,SSE,154,2.0,0.0,40,0.00,,,0.02,oem by Ross Wheeler,2013-07-29 21:46:00,
2013-07-29 17:55:00,81.2,58.0,29.99,NNW,343,0.0,0.0,45,0.00,,,0.02,oem by Ross Wheeler,2013-07-29 21:55:00,
2013-07-29 18:00:00,80.6,57.0,29.99,West,277,1.0,0.0,44,0.00,,,0.02,oem by Ross Wheeler,2013-07-29 22:00:00,
2013-07-29 18:10:00,79.9,56.0,29.99,SSW,198,0.0,0.0,44,0.00,,,0.02,oem by Ross Wheeler,2013-07-29 22:10:00,
2013-07-29 18:15:00,80.1,56.0,29.99,SE,135,0.0,0.0,43,0.00,,,0.02,oem by Ross Wheeler,2013-07-29 22:15:00,
2013-07-29 18:25:00,79.9,59.0,29.99,SSW,198,0.0,0.0,49,0.00,,,0.02,oem by Ross Wheeler,2013-07-29 22:25:00,
2013-07-29 18:31:00,79.5,57.0,29.99,NW,313,1.0,0.0,47,0.00,,,0.02,oem by Ross Wheeler,2013-07-29 22:31:00,
2013-07-29 18:40:00,78.8,56.0,29.99,WSW,237,1.0,0.0,46,0.00,,,0.02,oem by Ross Wheeler,2013-07-29 22:40:00,
2013-07-29 18:45:00,78.6,56.0,29.99,SSW,195,0.0,0.0,46,0.00,,,0.02,oem by Ross Wheeler,2013-07-29 22:45:00,
2013-07-29 18:55:00,78.4,58.0,29.99,SSW,212,0.0,0.0,50,0.00,,,0.02,oem by Ross Wheeler,2013-07-29 22:55:00,
2013-07-29 19:00:00,78.2,57.0,30.00,WNW,287,0.0,0.0,48,0.00,,,0.02,oem by Ross Wheeler,2013-07-29 23:00:00,
2013-07-29 19:10:00,77.7,58.0,30.00,NW,322,1.0,0.0,50,0.00,,,0.02,oem by Ross Wheeler,2013-07-29 23:10:00,
2013-07-29 19:15:00,77.5,56.0,30.00,South,185,3.0,0.0,47,0.00,,,0.02,oem by Ross Wheeler,2013-07-29 23:15:00,
2013-07-29 19:25:00,77.3,57.0,30.00,SSW,196,0.0,0.0,49,0.00,,,0.02,oem by Ross Wheeler,2013-07-29 23:25:00,
2013-07-29 19:31:00,77.1,55.0,30.01,SW,223,2.0,0.0,46,0.00,,,0.02,oem by Ross Wheeler,2013-07-29 23:31:00,
2013-07-29 19:40:00,76.9,58.0,30.01,SSW,210,0.0,0.0,52,0.00,,,0.02,oem by Ross Wheeler,2013-07-29 23:40:00,
2013-07-29 19:45:00,76.8,59.0,30.02,SSW,206,0.0,0.0,54,0.00,,,0.02,oem by Ross Wheeler,2013-07-29 23:45:00,
2013-07-29 19:55:00,76.2,58.0,30.02,SW,236,0.0,0.0,53,0.00,,,0.02,oem by Ross Wheeler,2013-07-29 23:55:00,
2013-07-29 20:00:00,75.9,57.0,30.02,NNW,343,1.0,0.0,53,0.00,,,0.02,oem by Ross Wheeler,2013-07-30 00:00:00,
2013-07-29 20:10:00,75.5,58.0,30.02,West,270,1.0,0.0,54,0.00,,,0.02,oem by Ross Wheeler,2013-07-30 00:10:00,
2013-07-29 20:15:00,75.3,59.0,30.02,West,270,0.0,0.0,58,0.00,,,0.02,oem by Ross Wheeler,2013-07-30 00:15:00,
2013-07-29 20:25:00,75.0,56.0,30.02,SW,227,0.0,0.0,52,0.00,,,0.02,oem by Ross Wheeler,2013-07-30 00:25:00,
2013-07-29 20:30:00,74.8,59.0,30.03,SW,227,0.0,0.0,58,0.00,,,0.02,oem by Ross Wheeler,2013-07-30 00:30:00,
2013-07-29 20:40:00,74.6,56.0,30.03,SW,231,0.0,0.0,53,0.00,,,0.02,oem by Ross Wheeler,2013-07-30 00:40:00,
2013-07-29 20:45:00,74.6,58.0,30.03,SW,215,0.0,0.0,57,0.00,,,0.02,oem by Ross Wheeler,2013-07-30 00:45:00,
2013-07-29 20:55:00,74.3,58.0,30.03,SW,215,0.0,0.0,58,0.00,,,0.02,oem by Ross Wheeler,2013-07-30 00:55:00,
2013-07-29 21:01:00,73.9,57.0,30.04,SW,236,0.0,0.0,56,0.00,,,0.02,oem by Ross Wheeler,2013-07-30 01:01:00,
2013-07-29 21:10:00,73.6,57.0,30.04,SW,236,1.0,0.0,57,0.00,,,0.02,oem by Ross Wheeler,2013-07-30 01:10:00,
2013-07-29 21:15:00,73.6,56.0,30.04,South,191,0.0,0.0,55,0.00,,,0.02,oem by Ross Wheeler,2013-07-30 01:15:00,
2013-07-29 21:25:00,73.6,58.0,30.04,SSW,199,0.0,0.0,59,0.00,,,0.02,oem by Ross Wheeler,2013-07-30 01:25:00,
2013-07-29 21:30:00,73.6,59.0,30.05,SW,224,0.0,0.0,60,0.00,,,0.02,oem by Ross Wheeler,2013-07-30 01:30:00,
2013-07-29 21:40:00,73.1,59.0,30.05,NNW,346,0.0,0.0,62,0.00,,,0.02,oem by Ross Wheeler,2013-07-30 01:40:00,
2013-07-29 21:45:00,72.9,59.0,30.05,NNW,346,0.0,0.0,61,0.00,,,0.02,oem by Ross Wheeler,2013-07-30 01:45:00,
2013-07-29 21:55:00,72.4,59.0,30.05,SW,222,0.0,0.0,62,0.00,,,0.02,oem by Ross Wheeler,2013-07-30 01:55:00,
2013-07-29 22:01:00,72.2,59.0,30.06,SW,222,0.0,0.0,63,0.00,,,0.02,oem by Ross Wheeler,2013-07-30 02:01:00,
2013-07-29 22:10:00,71.9,59.0,30.06,SW,222,0.0,0.0,65,0.00,,,0.02,oem by Ross Wheeler,2013-07-30 02:10:00,
2013-07-29 22:15:00,71.7,59.0,30.06,SW,222,0.0,0.0,64,0.00,,,0.02,oem by Ross Wheeler,2013-07-30 02:15:00,
2013-07-29 22:25:00,71.3,58.0,30.06,SSW,209,0.0,0.0,63,0.00,,,0.02,oem by Ross Wheeler,2013-07-30 02:25:00,
2013-07-29 22:30:00,71.3,57.0,30.06,SSW,209,0.0,0.0,62,0.00,,,0.02,oem by Ross Wheeler,2013-07-30 02:30:00,
2013-07-29 22:40:00,71.3,58.0,30.06,SSW,209,0.0,0.0,64,0.00,,,0.02,oem by Ross Wheeler,2013-07-30 02:40:00,
2013-07-29 22:46:00,71.2,58.0,30.06,SSW,199,0.0,0.0,63,0.00,,,0.02,oem by Ross Wheeler,2013-07-30 02:46:00,
2013-07-29 22:55:00,70.8,58.0,30.06,WSW,250,0.0,0.0,64,0.00,,,0.02,oem by Ross Wheeler,2013-07-30 02:55:00,
2013-07-29 23:00:00,70.8,58.0,30.07,West,260,0.0,0.0,64,0.00,,,0.02,oem by Ross Wheeler,2013-07-30 03:00:00,
2013-07-29 23:10:00,70.7,58.0,30.07,South,178,0.0,0.0,65,0.00,,,0.02,oem by Ross Wheeler,2013-07-30 03:10:00,
2013-07-29 23:15:00,70.5,58.0,30.07,SW,215,0.0,0.0,64,0.00,,,0.02,oem by Ross Wheeler,2013-07-30 03:15:00,
2013-07-29 23:25:00,70.3,58.0,30.07,SSW,206,0.0,0.0,66,0.00,,,0.02,oem by Ross Wheeler,2013-07-30 03:25:00,
2013-07-29 23:31:00,70.1,58.0,30.07,SSW,192,0.0,0.0,66,0.00,,,0.02,oem by Ross Wheeler,2013-07-30 03:31:00,
2013-07-29 23:40:00,70.0,58.0,30.07,WSW,244,0.0,0.0,65,0.00,,,0.02,oem by Ross Wheeler,2013-07-30 03:40:00,
2013-07-29 23:45:00,70.0,57.0,30.07,SW,226,0.0,0.0,64,0.00,,,0.02,oem by Ross Wheeler,2013-07-30 03:45:00,
2013-07-29 23:55:00,69.8,57.0,30.07,SSW,213,0.0,0.0,65,0.00,,,0.02,oem by Ross Wheeler,2013-07-30 03:55:00,